Погода в Волге

Россия / Ярославская область     57°57′00″N   38°23′16″E
темп.,
°C
ветер,
м/с
пор.,
м/с
влажн.,
%
обл.,
%
осадки,
мм/ч
давл.,
гПа
погр.,
м
6 мая, чт
чт600:00+4вюв3793100 0.3 1007296
03:00+4ююв249988 0.4 1007106
06:00+6юв3894100 0.0 1005320
09:00+11ююв51181100 0.0 1003572
12:00+15ю7146781 0.0 10011427
15:00+15ююз7166986 1.1 10001781
18:00+13ююз81573100 0.9 9991741
21:00+8зюз61187100 2.3 1002818
7 мая, пт
пт700:00+6ююз5129185 0.0 1004699
03:00+6юз5108753 0.0 1005805
06:00+5ююз512905 0.0 1007624
09:00+8юз696964 0.0 10081126
12:00+11юз6104999 0.1 10092216
15:00+13юз61142100 0.5 10092663
18:00+11ююз611695 0.4 10101347
21:00+7ю3108680 0.4 1011290
8 мая, сб
сб800:00+7ю3108694 0.0 1011313
03:00+6юв41188100 0.0 1010279
06:00+8ююв61477100 0.4 10081094
09:00+8ююв61582100 1.9 10071287
12:00+11ююв51177100 1.0 10051175
15:00+10юв61689100 5.1 10031556
18:00+9ююв51295100 1.1 1001759
21:00+9юз61189100 2.9 10001050
9 мая, вс
вс900:00+5ююз61185100 1.4 10011005
03:00+4ююз61283100 1.4 1001898
06:00+4ююз61188100 0.1 10021220
09:00+3зюз51191100 0.3 10051124
12:00+5з51284100 0.3 10101381
15:00+10сз6114835 0.3 10131990
18:00+10сз495227 0.0 10161869
21:00+4сз24740 0.0 102071
10 мая, пн
пн1000:00+2зсз22720 0.0 102216
03:00+2юз11731 0.0 102511
06:00+4ююз23685 0.0 102672
09:00+10ююз345019 0.0 1027567
12:00+13юз334199 0.0 10271556
15:00+14юз344148 0.0 10271709
18:00+14ю235113 0.0 10271005
21:00+9ююв22665 0.0 102820